Location: Unspecified
(50.7693°N, 0.0000°E)
Time: 18:25:27
(UTC+00:00)

SR - Pass Details

Date: 28 June 2019
Orbit: 580 x 876 km, 66.7° (Epoch: 19 July)

Event Time Altitude Azimuth Distance (km) Brightness Sun altitude
Rises 05:00:30 0° 277° (W) 2,822 ? 8.6°
Reaches altitude 10° 05:03:32 10° 301° (WNW) 1,951 ? 9.0°
Maximum altitude 05:06:11 16° 338° (NNW) 1,650 ? 9.4°
Drops below altitude 10° 05:08:56 10° 16° (NNE) 2,030 ? 9.8°
Sets 05:12:11 0° 38° (NE) 3,001 ? 10.3°
